Location: Frutt
(46.7742°N, 8.2705°E)
Time: 08:16:27
(UTC+00:00)

Daily predictions for brighter satellites

Satellite Brightness Start Highest point End
(mag) Time Altitude Azimuth Time Altitude Azimuth Time Altitude Azimuth
Meteor 2-4 Rocket 3.6 19:42:03 10° S 19:47:21 71° E 19:52:43 10° NNE
EXPRESS MD2 3.8 19:47:17 10° SSW 19:49:51 31° SE 19:54:02 10° ENE
STARLINK-1125 3.7 19:45:52 10° WNW 19:50:00 70° SW 19:54:07 10° SE
STARLINK-1098 4.4 19:48:08 10° WNW 19:52:11 48° NNE 19:56:12 10° E
Cosmos 1833 Rocket 3.0 19:47:32 10° NNW 19:53:07 68° WSW 19:58:40 10° SSE
Cosmos 2297 4.4 19:48:54 10° SSE 19:53:55 33° ESE 19:58:59 10° NE
Cosmos 1943 Rocket 3.8 19:51:37 10° SE 19:54:40 15° E 19:57:43 10° ENE
STARLINK-1109 3.8 19:50:52 10° WNW 19:54:58 65° SW 19:59:04 10° SE
STARLINK-1123 4.4 19:53:06 10° WNW 19:57:10 50° NNE 20:01:12 10° E
STARLINK-1246 3.7 19:53:41 10° WSW 19:57:50 86° NNW 20:02:00 10° ENE
IGS 5A 4.3 19:55:55 10° SE 19:59:44 37° ENE 20:03:35 10° N
Cosmos 2082 Rocket 2.3 19:54:03 10° NNW 19:59:49 87° ENE 20:05:31 10° SSE
STARLINK-1091 3.9 19:55:49 10° WNW 19:59:54 60° SW 20:04:00 10° SE
Cosmos 1420 Rocket 4.1 19:55:02 10° SSW 20:00:14 83° WNW 20:05:28 10° NNE
Cosmos 1452 Rocket 3.5 19:55:16 10° S 20:00:30 71° ESE 20:05:48 10° NNE
Cosmos 332 Rocket 4.0 19:56:03 10° S 20:00:49 55° ESE 20:05:37 10° NNE
DMSP B5D2-2 4.5 19:55:33 10° N 20:00:49 70° WNW 20:06:04 10° SSW
BREEZE-M DEB 3.7 19:59:17 10° S 20:00:56 17° SE 20:03:18 10° E
STARLINK-1097 4.3 19:58:07 10° WNW 20:02:11 52° NNE 20:06:15 10° E
Landsat 7 4.4 19:58:14 10° SE 20:02:44 44° ENE 20:07:15 10° N
Intercosmos 24 3.7 19:59:11 10° N 20:02:44 66° E 20:06:34 10° SSE
STARLINK-1224 3.8 19:58:39 10° WSW 20:02:47 81° NNW 20:06:58 10° ENE
STARLINK-1072 4.0 20:00:50 10° WNW 20:04:54 56° SW 20:08:52 10° SE
MOS 1 Rocket 4.4 20:02:19 10° N 20:06:28 43° WNW 20:10:32 10° SW
Cosmos 1461 3.1 20:03:07 10° SSW 20:07:07 50° ESE 20:11:20 10° NE
STARLINK-1099 4.2 20:03:05 10° WNW 20:07:11 55° NNE 20:11:15 10° E
STARLINK-1225 3.8 20:03:39 10° WSW 20:07:48 76° NNW 20:11:58 10° ENE
Okean 3 3.7 20:05:04 10° SSW 20:09:22 76° W 20:13:42 10° N
STARLINK-1096 4.1 20:05:50 10° WNW 20:09:52 51° SW 20:13:39 11° SE
Cosmos 2369 Rocket 3.9 20:07:31 10° SE 20:10:34 15° E 20:13:36 10° ENE
SAR-Lupe-2 4.2 20:08:05 10° NNE 20:11:26 36° E 20:14:46 10° SSE
STARLINK-1104 4.1 20:08:03 10° WNW 20:12:09 58° NNE 20:16:15 10° ESE
STARLINK-1230 3.9 20:08:38 10° WSW 20:12:46 72° NNW 20:16:56 10° ENE
NOSS 2-2 (C) 4.1 20:10:26 10° S 20:13:27 26° ESE 20:16:39 10° ENE
STARLINK-1079 4.2 20:10:50 10° WNW 20:14:49 47° SW 20:18:26 12° SE
STARLINK-1144 4.0 20:13:02 10° WNW 20:17:09 61° NNE 20:21:16 10° ESE
Cosmos 2221 Rocket 4.0 20:12:45 10° SSW 20:17:15 69° W 20:21:49 10° N
SL-4 R/B 3.2 20:15:03 10° WNW 20:17:29 22° WSW 20:19:46 10° SSW
ATLAS 2AS CENTAUR R/B 4.4 20:13:12 10° SE 20:17:30 16° ESE 20:21:51 10° ENE
STARLINK-1243 4.0 20:13:39 10° WSW 20:17:46 68° NNW 20:21:55 10° ENE
SPOT 5 4.0 20:14:18 11° SE 20:18:54 36° ENE 20:23:46 10° N
STARLINK-1116 4.3 20:15:50 10° WNW 20:19:47 44° SW 20:23:13 13° SSE
NOSS 8 (F) 4.1 20:17:28 10° SW 20:20:44 89° SE 20:23:46 10° NE
Meteor 1-13 Rocket 4.3 20:15:15 10° S 20:20:53 87° E 20:26:41 10° NNE
STARLINK-1103 3.9 20:18:00 10° WNW 20:22:08 65° NNE 20:26:13 10° ESE
STARLINK-1236 4.1 20:18:38 10° WSW 20:22:45 64° NNW 20:26:53 10° ENE
ERS-1 Rocket 3.6 20:19:40 12° SE 20:24:03 44° ENE 20:28:49 10° N
STARLINK-1101 3.8 20:22:59 10° WNW 20:27:07 68° NNE 20:31:00 11° ESE
Cosmos 1066 Rocket 4.3 20:23:20 10° S 20:28:34 54° E 20:33:46 10° NNE
USA 245 2.3 20:27:55 14° SSE 20:30:26 87° ENE 20:33:00 10° NNW
USA 238 DEB 4.3 20:24:30 10° NW 20:31:33 56° NE 20:38:25 12° ESE
USA 238 4.3 20:24:36 10° NW 20:31:38 55° NE 20:38:32 12° ESE
STARLINK-1102 3.8 20:27:58 10° WNW 20:32:07 72° NNE 20:35:48 13° ESE
STARLINK-1269 4.3 20:28:39 10° WSW 20:32:44 58° NNW 20:36:51 10° ENE
Cosmos 2278 Rocket 3.6 20:28:12 10° SW 20:33:34 42° NW 20:38:59 10° NNE
TSX-5 4.3 20:28:00 10° SSW 20:33:42 84° ESE 20:38:05 10° NNE
Resurs 01 Rocket 2.9 20:29:50 10° SSW 20:34:00 39° W 20:38:11 10° NNW
Okean 1 Rocket 3.2 20:29:52 10° N 20:34:20 62° E 20:37:54 15° SSE
Cosmos 1805 4.1 20:30:53 10° N 20:34:33 36° ENE 20:37:07 17° SE
Okean 2 Rocket 4.2 20:30:46 10° NNW 20:34:56 41° W 20:39:04 10° SSW
Cosmos 1741 Rocket 4.2 20:29:46 10° NNW 20:34:58 68° WSW 20:39:48 12° S
Nadezhda 4 Rocket 4.1 20:29:02 10° S 20:35:01 59° E 20:41:01 10° NNE
GPS 2-04 Rocket1 4.4 20:33:35 10° SW 20:35:23 13° S 20:35:57 13° S
STARLINK-1111 3.7 20:32:56 10° WNW 20:37:05 77° NNE 20:40:34 14° ESE
STARLINK-1200 4.4 20:33:39 10° W 20:37:43 55° NNW 20:41:48 10° ENE
MetOp-B 4.5 20:32:28 10° S 20:37:47 65° WSW 20:43:07 10° NNW
STARLINK-1073 3.6 20:37:55 10° WNW 20:42:05 82° NNE 20:45:22 16° ESE
SL-8 R/B 3.7 20:37:18 10° WNW 20:42:08 81° SSW 20:46:17 14° ESE
Cosmos 371 Rocket 4.5 20:40:45 10° SW 20:45:24 46° WNW 20:50:08 10° NNE
ATLAS 3B CENTAUR R/B 4.2 20:36:34 10° SW 20:46:43 24° S 20:50:57 16° SSE
STARLINK-1121 3.6 20:42:54 10° WNW 20:47:04 87° NNE 20:50:08 18° ESE
SL-4 R/B 3.4 20:43:15 10° S 20:47:04 25° SE 20:50:58 10° E
Cosmos 1110 Rocket 3.9 20:42:17 10° SSW 20:47:26 72° ESE 20:52:36 10° NNE
Terra 2.4 20:44:22 17° SE 20:47:43 44° ENE 20:52:14 10° N
Spot 2 Rocket 3.9 20:44:03 11° S 20:48:56 62° WSW 20:53:57 10° NNW
SPOT 1/Viking Rocket 3.6 20:45:17 14° SSE 20:49:46 84° WSW 20:54:58 10° NNW
Abrixas rocket 2.2 20:47:42 10° W 20:50:35 49° SSW 20:51:50 27° SE
CARTOSAT-1 3.6 20:47:49 18° SSE 20:50:56 69° ENE 20:55:14 10° N
NOSS 8 (H) 4.3 20:48:44 10° SW 20:51:54 73° NW 20:54:57 10° NE
STARLINK-1106 3.6 20:47:54 10° WNW 20:52:04 88° SSW 20:54:56 19° ESE
STARLINK-1112 3.6 20:52:51 10° WNW 20:57:01 83° SSW 20:59:41 21° SE
STARLINK-1128 3.6 20:57:50 10° WNW 21:01:59 77° SSW 21:04:28 23° SE
Cosmos 1331 Rocket 3.9 20:59:04 10° SSW 21:04:14 89° ESE 21:09:27 10° NNE
Aureole 2 Rocket 3.5 21:02:11 10° SW 21:05:06 37° WNW 21:07:55 10° N
STARLINK-1113 3.6 21:02:49 10° WNW 21:06:58 72° SSW 21:09:15 25° SE
Cosmos 1733 3.4 21:03:56 10° N 21:07:42 57° ENE 21:09:32 27° SSE
Cosmos 1437 Rocket 4.4 21:06:32 10° SW 21:09:57 32° WNW 21:13:25 10° N
COSMOS 2455 4.4 21:09:45 16° ESE 21:10:51 16° ESE 21:14:26 10° ENE
STARLINK-1119 3.6 21:07:50 10° WNW 21:11:57 67° SW 21:14:04 27° SE
Cosmos 1378 3.1 21:09:41 18° SSW 21:12:20 83° W 21:16:04 10° N
Cosmos 1302 Rocket 4.1 21:10:14 16° S 21:14:20 59° ESE 21:19:34 10° NNE
Cosmos 1271 Rocket 4.2 21:14:22 20° ESE 21:15:10 22° E 21:18:12 10° NE
USA 215 4.4 21:09:35 10° E 21:15:40 43° NNE 21:21:45 10° NW
Cosmos 1242 Rocket 3.6 21:15:26 26° ESE 21:16:18 29° E 21:19:33 10° NNE
ISS -1.2 21:15:46 10° WSW 21:16:18 10° SW 21:16:49 10° SW
Cosmos 1544 Rocket 4.4 21:12:40 10° N 21:16:42 36° ENE 21:18:39 24° ESE
STARLINK-1114 3.7 21:12:48 10° WNW 21:16:54 62° SW 21:18:49 29° SE
MTI 4.0 21:15:10 10° NNE 21:18:14 47° E 21:18:58 38° SE
STARLINK-60 4.1 21:20:10 26° E 21:20:10 26° E 21:22:00 10° ENE
Lacrosse 5 3.9 21:16:09 10° W 21:19:11 16° WSW 21:22:07 10° SSW
Cosmos 1092 Rocket 3.9 21:15:31 16° S 21:20:31 81° E 21:26:42 10° N
NOSS 2-2 (D) 3.5 21:18:10 10° SW 21:21:43 66° NW 21:25:44 10° NE
STARLINK-1130 (DARKSAT) 3.8 21:17:48 10° WNW 21:21:53 57° SW 21:23:37 31° SSE
CENTAUR R/B 3.4 21:16:17 10° NW 21:24:13 67° NE 21:31:08 18° SE
Cosmos 1707 4.2 21:24:35 21° ESE 21:25:17 22° E 21:28:21 10° NE
STARLINK-1084 3.9 21:22:48 10° WNW 21:26:51 53° SW 21:28:24 33° SSE
ATLAS 3B R/B 3.8 21:20:58 10° NNW 21:27:14 39° NE 21:33:40 10° ESE
SL-27 R/B 2.5 21:24:40 10° NNW 21:28:16 69° ENE 21:29:28 38° SE
NOSS 3-2 (C) 4.1 21:22:00 10° NW 21:29:28 76° NE 21:35:37 20° SE
Cosmos 1766 3.7 21:26:46 10° NNW 21:30:42 58° W 21:32:47 26° SSW
Cosmos 1726 4.1 21:29:09 10° NNE 21:31:43 17° ENE 21:32:50 15° E
STARLINK-1098 4.0 21:27:47 10° WNW 21:31:48 49° SW 21:33:11 34° SSE
Cosmos 1867 4.4 21:29:05 10° NNW 21:34:20 45° NE 21:38:07 18° ESE
Cosmos 2195 Rocket 4.5 21:30:46 18° S 21:35:38 90° E 21:41:57 10° N
STARLINK-1123 4.1 21:32:47 10° WNW 21:36:45 45° SW 21:37:57 34° S
Cosmos 1943 Rocket 2.2 21:32:02 10° SSW 21:37:35 86° WNW 21:43:14 10° NNE
NOSS 3-4 (A) 3.9 21:36:32 26° SSE 21:39:07 39° ESE 21:44:51 10° NE
NOSS 3-4 (C) 3.9 21:36:40 26° SSE 21:39:13 38° ESE 21:44:57 10° NE
Cosmos 1428 Rocket 4.5 21:36:33 22° S 21:40:49 79° E 21:47:06 10° N
STARLINK-1097 4.2 21:37:49 10° WNW 21:41:44 41° SW 21:42:45 35° S
Cosmos 2082 Rocket 4.5 21:39:53 10° WNW 21:43:04 15° W 21:46:16 10° SW
SeaSat 1 3.2 21:39:05 10° NE 21:43:29 32° ESE 21:44:34 29° SE
EO 1 Del DPAF 4.0 21:40:35 10° NNE 21:44:02 33° E 21:44:29 32° ESE
STARLINK-1099 4.3 21:42:49 10° WNW 21:46:41 38° SW 21:47:31 34° SSW
Cosmos 1975 Rocket 3.3 21:44:36 22° SSW 21:47:20 66° W 21:51:44 10° N
STARLINK-1212 3.8 21:46:26 10° NW 21:49:26 44° NNE 21:50:46 26° ENE
STARLINK-1105 3.8 21:46:54 10° NW 21:49:55 44° NNE 21:51:13 27° ENE
STARLINK-1247 3.8 21:47:47 10° NW 21:50:48 45° NNE 21:52:06 27° E
Cosmos 292 Rocket 3.7 21:48:20 28° S 21:50:54 76° ESE 21:55:46 10° NNE
STARLINK-1227 3.8 21:48:16 10° NW 21:51:17 45° NNE 21:52:32 28° ENE
BREEZE-M DEB (TANK) 3.6 21:36:40 10° WSW 21:51:24 86° NNW 21:55:13 10° ENE
STARLINK-1104 4.4 21:47:49 10° WNW 21:51:37 35° SW 21:52:18 33° SSW
STARLINK-1226 3.8 21:49:07 10° NW 21:52:09 46° NNE 21:53:24 28° ENE
BREEZE-M DEB (TANK) 3.3 21:48:32 10° WNW 21:52:26 61° N 21:56:15 10° E
STARLINK-1215 3.8 21:50:01 10° NW 21:53:03 47° NNE 21:54:17 29° E
Cosmos 2369 Rocket 2.2 21:49:04 16° SSW 21:53:46 89° WNW 21:59:28 10° NNE
STARLINK-1217 3.7 21:51:50 10° NW 21:54:53 48° NNE 21:56:00 30° ENE
S3M 4.2 21:48:57 10° N 21:55:02 57° ENE 21:58:11 29° SE
STARLINK-1229 3.7 21:52:45 10° NW 21:55:48 48° NNE 21:56:54 31° ENE
STARLINK-1144 4.5 21:52:51 10° WNW 21:56:35 33° SW 21:57:05 31° SSW
STARLINK-1270 3.7 21:53:38 10° NW 21:56:41 49° NNE 21:57:45 32° ENE
SPOT 5 4.3 21:53:31 17° SSW 21:56:56 35° W 22:01:49 10° NNW
STARLINK-1189 3.6 21:55:26 10° NW 21:58:29 50° NNE 21:59:29 34° ENE
Aureole 3 Rocket 4.4 21:52:29 10° N 21:58:46 89° E 22:03:54 26° S
STARLINK-1188 3.6 21:56:20 10° NW 21:59:24 51° NNE 22:00:22 35° ENE
ATLAS CENTAUR R/B 2.1 21:59:35 35° ESE 21:59:39 35° ESE 22:03:29 10° NE
STARLINK-1187 3.4 21:57:26 10° NW 22:00:30 56° NNE 22:01:14 42° ENE
Cosmos 1340 Rocket 3.8 21:57:38 10° N 22:01:24 35° ENE 22:02:31 30° ESE
STARLINK-1191 3.5 21:58:46 10° NW 22:01:49 52° NNE 22:02:39 38° ENE
STARLINK-1221 3.5 21:59:43 10° NW 22:02:47 53° NNE 22:03:34 39° ENE
STARLINK-1222 3.5 22:00:35 10° NW 22:03:38 54° NNE 22:04:23 40° ENE
NOSS 7 (A) 4.4 22:04:00 78° SSE 22:04:05 80° SE 22:07:01 10° NE
Cosmos 1025 Rocket 3.0 22:02:58 43° SSE 22:04:10 65° E 22:08:27 10° NNE
STARLINK-1214 3.4 22:01:28 10° NW 22:04:32 54° NNE 22:05:15 42° ENE
Thor Agena Rocket 3.6 21:59:39 10° NNE 22:04:57 66° ESE 22:07:12 34° S
Cosmos 2026 Rocket 4.3 22:00:23 19° SSW 22:05:02 66° WNW 22:11:23 10° N
EXPRESS MD2 4.4 22:01:36 10° W 22:05:33 68° N 22:13:51 10° ENE
ATLAS 2AS CENTAUR R/B 3.0 22:00:30 15° SSW 22:07:11 68° ESE 22:15:03 10° NE
Cosmos 1656 Rocket 3.7 22:04:50 32° S 22:07:25 63° ESE 22:12:55 10° NNE
BREEZE M DEB (TANK) 2.7 22:04:41 10° W 22:07:50 50° N 22:08:33 33° NE
Cosmos 1553 Rocket 4.0 22:02:15 10° N 22:08:35 87° W 22:11:43 32° S
Cosmos 1953 2.7 22:05:54 10° N 22:09:49 51° ENE 22:10:41 42° ESE
BREEZE-M DEB (TANK) 3.9 21:56:58 10° WNW 22:09:53 76° SSW 22:11:56 33° SE
STARLINK-1228 3.2 22:06:54 10° WNW 22:10:25 78° NNE 22:11:08 53° ESE
NOSS 3-2 (A) 4.5 22:03:22 10° NW 22:10:42 52° WSW 22:15:11 27° S
Cosmos 1470 2.8 22:07:03 10° NNW 22:10:54 66° W 22:11:51 46° SSW
APEX 4.3 22:06:47 17° SSW 22:11:58 86° WNW 22:17:20 10° NNE
STARLINK-1235 3.0 22:09:38 10° WNW 22:12:52 76° NNE 22:13:12 66° E
Cosmos 2292 Rocket 4.0 22:13:24 32° E 22:13:25 32° E 22:16:23 10° NNE
Cosmos 968 Rocket 3.5 22:10:29 10° NNW 22:15:36 67° WSW 22:17:31 38° S
Cosmos 1455 Rocket 4.1 22:13:42 10° NNW 22:17:42 37° W 22:19:25 26° SW
Cosmos 1655 Rocket 4.0 22:15:02 32° S 22:18:02 74° E 22:24:18 10° NNE
SL-4 R/B 3.1 22:20:18 19° NNE 22:20:18 19° NNE 22:21:16 10° NNE
ATLAS 5 CENTAUR R/B 1.4 22:21:46 59° S 22:22:08 66° SE 22:24:30 10° NE
USA 238 DEB 4.5 22:15:42 10° NW 22:22:26 43° WSW 22:25:51 27° SSW
USA 238 4.5 22:15:48 10° NW 22:22:32 43° WSW 22:25:58 27° SSW
Cosmos 1758 3.7 22:20:25 10° NNW 22:24:24 55° W 22:25:25 42° SW
Terra 3.5 22:23:15 16° SW 22:25:38 24° W 22:29:28 10° NW
SL-4 R/B 2.3 22:21:34 10° WSW 22:26:24 88° SSE 22:31:16 10° ENE
Cosmos 2228 4.1 22:23:38 10° N 22:27:30 33° ENE 22:28:36 28° ESE
STARLINK-1234 3.1 22:27:23 10° WNW 22:30:16 64° W 22:30:16 64° W
STARLINK-1245 4.5 22:27:03 10° WNW 22:31:05 49° NNE 22:34:26 14° E
In-Cosmos 22 4.1 22:30:04 40° SSE 22:31:53 66° E 22:37:07 10° NNE
Cosmos 1503 Rocket 4.2 22:30:30 10° NNW 22:35:46 63° WSW 22:37:35 40° S
STARLINK-1233 4.4 22:32:00 10° WNW 22:36:04 51° NNE 22:39:12 16° E
Cosmos 2266 Rocket 3.9 22:33:43 36° S 22:36:19 74° E 22:42:21 10° NNE
STARLINK-1209 3.5 22:33:33 10° WNW 22:36:13 50° W 22:36:13 50° W
STARLINK-1204 4.3 22:36:59 10° WNW 22:41:04 53° NNE 22:43:59 18° E
SJ 16-02 4.0 22:41:25 10° NNE 22:43:24 13° NE 22:45:23 10° ENE
STARLINK-1238 4.2 22:41:59 10° WNW 22:46:05 56° NNE 22:48:47 20° E
Cosmos 1536 Rocket 4.1 22:45:43 35° SW 22:47:11 51° WNW 22:51:28 10° N
Cosmos 1674 2.8 22:48:20 55° ESE 22:48:30 56° E 22:52:13 10° NNE
Helios 1B rocket 4.5 22:47:20 10° NE 22:49:50 15° E 22:50:09 15° E
Cosmos 1271 Rocket 4.2 22:49:29 23° WSW 22:51:00 30° WNW 22:54:31 10° N
STARLINK-1201 4.1 22:46:58 10° WNW 22:51:05 59° NNE 22:53:33 22° E
Spot 4 4.4 22:53:29 36° SW 22:54:53 46° W 22:59:34 10° NNW
Cosmos 1354 Rocket 4.5 22:49:56 10° NNW 22:55:02 49° WSW 22:56:35 37° SSW
STARLINK-60 4.1 22:52:21 12° W 22:55:08 43° NNW 22:58:13 10° NE
COSMOS 2455 2.8 22:52:50 31° SSW 22:55:56 89° ESE 23:02:01 10° NNE
STARLINK-1206 4.0 22:51:57 10° WNW 22:56:05 62° NNE 22:58:21 25° E
Cosmos 883 Rocket 4.4 22:50:18 10° N 22:56:28 83° W 22:58:57 39° S
Cosmos 2219 4.4 22:53:01 10° NNW 22:58:13 35° NE 23:02:17 15° ESE
USA 215 3.3 22:52:57 17° ESE 22:58:16 84° NE 23:04:51 10° NW
Cosmos 1707 4.2 22:59:44 24° WSW 23:01:01 29° WNW 23:04:27 10° NNW
STARLINK-1205 3.9 22:56:55 10° WNW 23:01:03 66° NNE 23:03:07 28° E
Cosmos 2297 Rocket 3.6 22:57:24 10° NNW 23:02:27 32° NE 23:07:00 12° ESE
Helios 1A 3.2 23:01:35 49° SE 23:02:29 64° ENE 23:06:38 10° N
Lacrosse 4 Rocket 4.3 23:03:27 10° N 23:05:44 14° NE 23:08:00 10° ENE
STARLINK-1218 3.8 23:01:55 10° WNW 23:06:04 69° NNE 23:07:55 31° ESE
Cosmos 1726 3.1 23:03:37 10° NNW 23:07:03 36° W 23:07:20 35° WSW
Cosmos 1174 3.9 23:06:36 49° W 23:07:05 54° NW 23:10:49 10° NNE
ALOS 2 2.7 23:07:47 51° SSW 23:08:36 62° WSW 23:12:59 10° NNW
Timation 2 Rocket 3.9 23:03:42 10° NNW 23:10:04 81° ENE 23:12:55 34° SE
STARLINK-1369 4.5 23:11:47 32° E 23:11:47 32° E 23:14:10 10° ENE
Cosmos 2058 Rocket 3.6 23:06:30 10° N 23:10:51 50° ENE 23:11:58 39° ESE
COSMOS 2487 3.5 23:07:40 10° NW 23:10:32 35° W 23:10:32 35° W
STARLINK-1254 3.7 23:06:53 10° WNW 23:11:03 74° NNE 23:12:41 35° ESE
STARLINK-1372 4.3 23:15:07 35° E 23:15:07 35° E 23:17:40 10° ENE
CENTAUR R/B 3.8 23:07:22 10° NW 23:14:50 40° WSW 23:18:17 29° SSW
STARLINK-1231 3.6 23:11:51 10° WNW 23:16:00 78° NNE 23:17:27 39° ESE
Meteor 2-5 Rocket 3.7 23:14:12 43° SSE 23:16:02 71° E 23:21:39 10° NNE
STARLINK-1378 4.2 23:18:28 39° E 23:18:28 39° E 23:21:10 10° ENE
Cosmos 1867 4.3 23:12:54 10° NW 23:17:51 36° WSW 23:18:45 33° SW
ATLAS 3B R/B 2.8 23:11:35 10° NW 23:18:18 63° WSW 23:21:10 36° S
SL-14 R/B 3.7 23:19:11 44° ESE 23:19:23 44° E 23:23:05 10° NNE
FALCON 9 DEB 3.2 23:20:08 77° NNW 23:20:08 77° NNW 23:23:32 10° ENE
Cosmos 1606 Rocket 3.6 23:16:35 10° NNW 23:20:53 67° W 23:21:36 55° SSW
STARLINK-1379 4.0 23:21:51 43° E 23:21:51 43° E 23:24:42 10° ENE
STARLINK-1232 3.6 23:16:51 10° WNW 23:21:00 83° NNE 23:22:15 44° ESE
SeaSat 1 3.5 23:16:26 10° NNE 23:21:05 42° NW 23:24:20 18° WSW
STARLINK-1329 4.0 23:23:14 45° E 23:23:14 45° E 23:26:10 10° ENE
Meteor 2-21 4.5 23:20:59 39° SSE 23:23:22 71° E 23:29:33 10° NNE
Cosmos 2098 Rocket 4.4 23:20:08 33° SSW 23:23:42 77° W 23:31:13 10° N
STARLINK-29 3.9 23:24:03 34° WNW 23:25:00 46° NNW 23:28:07 10° NE
STARLINK-1208 3.5 23:21:48 10° WNW 23:25:58 88° NNE 23:27:00 50° ESE
STARLINK-1362 3.8 23:26:40 50° E 23:26:40 50° E 23:29:46 10° ENE
ATLAS CENTAUR R/B 2.8 23:26:16 10° NNW 23:28:22 32° NE 23:32:01 10° ESE
STARLINK-1373 3.6 23:30:05 55° ESE 23:30:05 55° ESE 23:33:21 10° ENE
NOSS 3-4 (A) 4.3 23:24:04 10° WSW 23:29:52 49° NW 23:36:07 10° NE
NOSS 3-4 (C) 4.2 23:24:09 10° WSW 23:29:57 49° NW 23:36:13 10° NE
RESURS DK-1 2.3 23:29:48 58° SW 23:30:32 78° WNW 23:34:42 10° NNE
STARLINK-1365 3.5 23:31:12 61° ESE 23:31:12 61° ESE 23:34:37 10° ENE
STARLINK-1271 3.5 23:26:49 10° WNW 23:30:58 87° SSW 23:31:49 56° SE
STARLINK-1390 3.5 23:33:34 61° ESE 23:33:34 61° ESE 23:36:59 10° ENE
Cosmos 1697 Rocket 4.4 23:32:47 17° ESE 23:34:25 19° E 23:38:15 10° ENE
Cosmos 2315 Rocket 4.3 23:28:33 10° NNW 23:34:34 54° W 23:36:59 35° SSW
Cosmos 2084 3.4 23:33:36 53° SW 23:34:37 90° W 23:39:07 10° NE
STARLINK-1154 3.4 23:31:48 10° WNW 23:35:57 81° SSW 23:36:35 62° SE
Cosmos 1626 2.0 23:36:00 74° SE 23:36:09 75° E 23:39:53 10° NNE
BREEZE-M R/B 3.5 23:31:45 22° SW 23:36:12 60° SSE 23:40:01 10° ENE
ATLAS CENTAUR R/B 2.9 23:35:42 16° W 23:38:34 33° NW 23:42:18 10° NNE
Okean 1-7 Rocket 3.5 23:37:39 57° S 23:38:35 87° E 23:43:08 10° N
Cosmos 2227 Rocket 2.9 23:34:02 10° NNW 23:39:34 49° ENE 23:43:29 19° SE
STARLINK-1197 3.4 23:36:45 10° WNW 23:40:54 76° SSW 23:41:21 67° SSE
Nadezhda 2 Rocket 4.4 23:39:44 38° SSW 23:42:13 78° W 23:48:24 10° N
Cosmos 1908 4.3 23:38:55 10° NNW 23:42:19 32° W 23:42:29 31° W
CZ-4 R/B 4.0 23:37:58 10° NNE 23:42:43 61° ESE 23:43:50 47° SSE
STARLINK-1198 3.4 23:41:44 10° WNW 23:45:52 71° SSW 23:46:07 68° S
Cosmos 1602 Rocket 4.5 23:47:23 32° ESE 23:48:21 36° E 23:52:19 10° NNE
Landsat 4 4.0 23:46:54 10° N 23:50:33 54° WNW 23:51:00 50° WSW
STARLINK-1199 3.5 23:46:45 10° WNW 23:50:51 66° SW 23:50:55 66° SSW
Meteor 2-21 Rocket 4.4 23:50:06 39° S 23:52:36 90° E 23:58:51 10° N
STARLINK-1269 4.5 23:49:00 10° WNW 23:53:04 50° NNE 23:57:06 10° E
STARLINK-1210 3.6 23:51:43 10° WNW 23:55:41 60° SW 23:55:41 60° SW
